Weather History for KLEX - October, 2012

Change the Weather History Date:

Thursday, October 18, 2012

  Actual Average Record
Temperature  
Mean Temperature 58 °F 56 °F  
Max Temperature 64 °F 67 °F 87 °F (1938)
Min Temperature 51 °F 46 °F 24 °F (1948)
Degree Days  
Heating Degree Days 7 9  
Month to date heating degree days 167 126  
Since 1 July heating degree days 241 180  
Cooling Degree Days 0 1  
Month to date cooling degree days 2 22  
Year to date cooling degree days 1355 1185  
Growing Degree Days 8 (Base 50)    
Moisture  
Dew Point 42 °F    
Average Humidity 59    
Maximum Humidity 93    
Minimum Humidity 25    
Precipitation  
Precipitation 0.09 in 0.10 in 2.46 in (2004)
Month to date precipitation 0.66 1.76  
Year to date precipitation 33.69 36.34  
Snow  
Snow 0.00 in 0.00 in 0.00 in ()
Month to date snowfall 0.0 0.0  
Since 1 July snowfall 0.0 0.0  
Since 1 September snowfall 0.0 0.0  
Snow Depth 0.00 in    
Sea Level Pressure  
Sea Level Pressure 29.67 in    
Wind  
Wind Speed 12 mph (SW)    
Max Wind Speed 25 mph    
Max Gust Speed 35 mph    
Visibility 10 miles    
Events Rain    
T = Trace of Precipitation, MM = Missing Value Source: NWS Daily Summary

Daily Weather History Graph

Daily Weather History Graph

Search for Another Location

Airport or City:

Trip Planner

Search our weather history database for the weather conditions in past years. The results will help you decide how hot, cold, wet, or windy it might be!

Date:

Astronomy

Oct. 18, 2012 Rise Set
Actual Time 7:50 AM EDT 6:55 PM EDT
Civil Twilight 7:23 AM EDT 7:22 PM EDT
Nautical Twilight 6:53 AM EDT 7:53 PM EDT
Astronomical Twilight 6:22 AM EDT 8:23 PM EDT
Moon 11:28 AM EDT (10/18) 9:32 PM EDT (10/18)
Length of Visible Light 11h 58m
Length of Day
11h 05m
Waxing Crescent, 14% of the Moon is Illuminated
Oct 18
Waxing Crescent
Oct 21
First Quarter
Oct 29
Full
Nov 6
Last Quarter
Nov 13
New

Hourly Weather History & Observations

Time (EDT) Temp. Dew Point Humidity Pressure Visibility Wind Dir Wind Speed Gust Speed Precip Events Conditions
12:54 AM 62.1 °F 45.0 °F 53% 29.58 in 10.0 mi South 15.0 mph - N/A   Clear
1:54 AM 62.1 °F 45.0 °F 53% 29.56 in 10.0 mi SSE 15.0 mph - N/A   Clear
2:52 AM 64.4 °F 46.4 °F 52% 29.64 in 10.0 mi SW 12.7 mph - N/A   Mostly Cloudy
2:54 AM 64.0 °F 46.9 °F 54% 29.62 in 10.0 mi SW 17.3 mph 21.9 mph 0.00 in Rain Light Rain
3:54 AM 55.9 °F 54.0 °F 93% 29.63 in 10.0 mi SW 12.7 mph 21.9 mph 0.06 in Rain Light Rain
4:54 AM 55.0 °F 53.1 °F 93% 29.60 in 10.0 mi SSE 15.0 mph - 0.03 in Rain Light Rain
5:54 AM 55.0 °F 52.0 °F 89% 29.58 in 10.0 mi South 21.9 mph 32.2 mph 0.00 in   Clear
6:54 AM 55.9 °F 52.0 °F 87% 29.60 in 10.0 mi SSW 18.4 mph 25.3 mph N/A   Overcast
7:17 AM 57.2 °F 51.8 °F 82% 29.63 in 10.0 mi SSW 17.3 mph 24.2 mph N/A   Overcast
7:54 AM 54.0 °F 50.0 °F 86% 29.65 in 10.0 mi WSW 16.1 mph 24.2 mph N/A   Mostly Cloudy
8:43 AM 53.6 °F 48.2 °F 82% 29.69 in 10.0 mi WSW 9.2 mph 18.4 mph 0.00 in   Overcast
8:54 AM 53.1 °F 48.9 °F 86% 29.68 in 10.0 mi SW 11.5 mph - 0.00 in   Overcast
9:31 AM 53.6 °F 48.2 °F 82% 29.71 in 10.0 mi WSW 11.5 mph - N/A   Mostly Cloudy
9:54 AM 54.0 °F 50.0 °F 86% 29.71 in 10.0 mi SW 9.2 mph - N/A   Partly Cloudy
10:54 AM 57.0 °F 46.9 °F 69% 29.71 in 10.0 mi SW 10.4 mph 19.6 mph N/A   Clear
11:54 AM 60.1 °F 43.0 °F 53% 29.71 in 10.0 mi West 16.1 mph 25.3 mph N/A   Partly Cloudy
12:54 PM 60.1 °F 37.9 °F 44% 29.72 in 10.0 mi WSW 13.8 mph 25.3 mph N/A   Clear
1:54 PM 61.0 °F 39.0 °F 44% 29.71 in 10.0 mi West 12.7 mph 20.7 mph N/A   Scattered Clouds
2:54 PM 62.1 °F 33.1 °F 34% 29.70 in 10.0 mi WSW 12.7 mph - N/A   Scattered Clouds
3:54 PM 63.0 °F 28.9 °F 28% 29.69 in 10.0 mi SW 11.5 mph 23.0 mph N/A   Partly Cloudy
4:54 PM 63.0 °F 26.1 °F 25% 29.70 in 10.0 mi WSW 19.6 mph 29.9 mph N/A   Clear
5:54 PM 61.0 °F 32.0 °F 34% 29.70 in 10.0 mi SW 9.2 mph - N/A   Clear
6:54 PM 55.9 °F 30.9 °F 39% 29.72 in 10.0 mi SSW 5.8 mph - N/A   Clear
7:54 PM 54.0 °F 30.0 °F 40% 29.73 in 10.0 mi South 5.8 mph - N/A   Clear
8:54 PM 52.0 °F 30.9 °F 45% 29.73 in 10.0 mi SSE 6.9 mph - N/A   Partly Cloudy
9:54 PM 52.0 °F 32.0 °F 47% 29.73 in 10.0 mi SSE 5.8 mph - N/A   Mostly Cloudy
10:54 PM 52.0 °F 34.0 °F 50% 29.72 in 10.0 mi South 8.1 mph - N/A   Overcast
11:54 PM 53.1 °F 34.0 °F 48% 29.72 in 10.0 mi South 8.1 mph - N/A   Overcast